period_start,C,m1,H,J0,J1,J2,J3,J4,J5,JA,JB,JC,JD,JJ,JK,JN,#
2017-09-16 00:02:43,0.02,0.10,0.00,23.89,26.39,29.34,13.78,40.29,1018.14,2037.00,3553.10,3066.20,3516.00,599.96,595.09,23.75,0000 0000 0000 0000 000000
2017-09-16 00:07:44,0.00,0.10,0.00,23.92,26.39,29.33,13.78,40.23,1018.13,2037.00,3553.00,3066.01,3515.98,600.07,595.07,23.80,0000 0000 0000 0000 000000
2017-09-16 00:12:46,0.00,0.10,0.00,23.90,26.39,29.34,13.72,40.32,1018.21,2037.00,3552.97,3066.00,3515.81,600.06,595.25,23.85,0000 0000 0000 0000 000000
2017-09-16 00:17:47,0.02,0.11,0.00,23.92,26.39,29.33,13.74,40.42,1018.37,2037.00,3552.35,3065.98,3515.10,599.61,594.82,23.90,0000 0000 0000 0000 000000
2017-09-16 00:22:49,0.00,0.11,0.00,23.85,26.38,29.31,13.80,40.42,1018.41,2037.00,3552.00,3065.87,3515.00,600.44,595.81,23.95,0000 0000 0000 0000 000000
2017-09-16 00:27:50,0.01,0.11,0.00,23.91,26.38,29.30,13.75,40.21,1018.27,2037.00,3551.99,3065.45,3514.99,599.89,595.04,24.00,0000 0000 0000 0000 000000
2017-09-16 00:32:52,0.02,0.11,0.00,23.90,26.39,29.31,13.77,40.33,1018.19,2037.00,3551.58,3065.06,3514.74,600.10,595.22,24.05,0000 0000 0000 0000 000000
2017-09-16 00:37:52,0.01,0.11,0.00,23.98,26.39,29.32,13.81,40.26,1018.10,2037.00,3551.02,3065.00,3514.09,600.34,595.34,24.10,0000 0000 0000 0000 000000
2017-09-16 00:42:53,0.00,0.11,0.00,23.85,26.39,29.32,13.72,40.27,1018.08,2037.00,3550.90,3065.00,3514.01,599.70,594.74,24.15,0000 0000 0000 0000 000000
2017-09-16 00:47:55,0.01,0.11,0.00,23.94,26.39,29.34,13.74,40.30,1018.09,2037.00,3550.14,3064.89,3513.98,600.13,595.11,24.20,0000 0000 0000 0000 000000
2017-09-16 00:52:56,0.02,0.11,0.00,23.84,26.39,29.30,13.81,40.35,1018.10,2037.00,3550.00,3064.44,3513.77,600.00,595.28,24.25,0000 0000 0000 0000 000000
2017-09-16 00:57:57,0.02,0.11,0.00,23.96,26.39,29.31,13.80,40.13,1018.09,2037.00,3549.95,3064.08,3513.28,599.95,594.90,24.30,0000 0000 0000 0000 000000
2017-09-16 01:02:58,0.01,0.11,0.00,23.87,26.39,29.29,13.76,40.23,1018.09,2037.00,3549.49,3064.01,3513.02,600.14,595.28,24.35,0000 0000 0000 0000 000000
2017-09-16 01:07:59,0.00,0.11,0.00,23.92,26.39,29.28,13.70,40.42,1018.09,2037.00,3549.01,3063.99,3512.99,599.83,594.90,24.40,0000 0000 0000 0000 000000
2017-09-16 01:13:01,0.01,0.11,0.00,23.97,26.40,29.28,13.69,40.32,1018.09,2037.00,3548.83,3063.98,3512.79,599.64,594.45,24.45,0000 0000 0000 0000 000000
2017-09-16 01:18:02,0.04,0.11,0.00,23.95,26.40,29.32,13.74,40.24,1018.09,2037.00,3548.07,3063.46,3512.09,599.75,594.75,24.50,0000 0000 0000 0000 000000
2017-09-16 01:23:03,0.00,0.11,0.00,23.93,26.40,29.32,13.81,40.30,1018.09,2037.00,3547.99,3063.05,3512.00,600.00,595.02,24.55,0000 0000 0000 0000 000000
2017-09-16 01:28:04,0.01,0.12,0.00,23.90,26.40,29.30,13.77,40.35,1018.09,2037.00,3547.72,3063.01,3512.00,600.00,595.12,24.60,0000 0000 0000 0000 000000
2017-09-16 01:33:06,0.01,0.12,0.00,23.94,26.40,29.31,13.74,40.35,1018.10,2037.00,3547.07,3063.00,3511.73,600.31,595.36,24.65,0000 0000 0000 0000 000000
2017-09-16 01:38:07,0.01,0.12,0.00,23.83,26.40,29.26,13.83,40.38,1018.10,2037.00,3546.99,3062.96,3511.09,600.19,595.48,24.70,0000 0000 0000 0000 000000
2017-09-16 01:43:09,0.02,0.12,0.00,23.94,26.40,29.21,13.75,40.26,1018.09,2037.00,3546.51,3062.58,3511.01,599.80,594.81,24.75,0000 0000 0000 0000 000000
2017-09-16 01:48:10,0.01,0.12,0.00,23.91,26.40,29.25,13.77,40.39,1018.09,2037.00,3546.03,3062.10,3510.99,599.66,594.78,24.80,0000 0000 0000 0000 000000
2017-09-16 01:53:11,0.00,0.12,0.00,23.93,26.40,29.28,13.71,40.30,1018.09,2037.00,3546.00,3062.02,3510.94,600.25,595.29,24.85,0000 0000 0000 0000 000000
2017-09-16 01:58:12,0.01,0.12,0.00,23.88,26.40,29.31,13.78,40.51,1018.17,2037.00,3545.82,3062.00,3510.30,600.34,595.49,24.90,0000 0000 0000 0000 000000
2017-09-16 02:03:13,0.01,0.12,0.00,23.87,26.40,29.27,13.79,40.43,1018.15,2037.00,3545.11,3061.98,3510.03,600.22,595.41,24.95,0000 0000 0000 0000 000000
2017-09-16 02:08:15,0.01,0.12,0.00,23.91,26.40,29.26,13.79,40.37,1018.13,2037.00,3544.99,3061.82,3510.00,600.03,595.18,25.00,0000 0000 0000 0000 000000
2017-09-16 02:13:16,0.01,0.12,0.00,23.89,26.40,29.25,13.73,40.27,1018.13,2036.99,3544.95,3061.43,3509.94,599.73,594.80,25.05,0000 0000 0000 0000 000000
2017-09-16 02:18:17,0.02,0.12,0.00,23.88,26.40,29.27,13.70,40.29,1018.15,2036.99,3544.52,3061.11,3509.65,599.70,594.91,25.10,0000 0000 0000 0000 000000
2017-09-16 02:23:18,0.01,0.12,0.00,23.90,26.40,29.25,13.73,40.22,1018.16,2036.99,3544.04,3061.02,3509.11,600.05,595.18,25.15,0000 0000 0000 0000 000000
2017-09-16 02:28:19,0.00,0.12,0.00,23.84,26.41,29.29,13.78,40.03,1018.17,2036.99,3544.00,3061.00,3509.02,599.92,595.19,25.20,0000 0000 0000 0000 000000
2017-09-16 02:33:20,0.00,0.12,0.00,23.89,26.42,29.24,13.79,40.08,1018.16,2036.99,3544.00,3061.00,3509.01,600.10,595.19,25.25,0000 0000 0000 0000 000000
2017-09-16 02:38:21,0.00,0.12,0.00,23.89,26.42,29.26,13.76,40.02,1018.15,2036.99,3544.00,3061.00,3509.00,599.85,595.01,25.30,0000 0000 0000 0000 000000
2017-09-16 02:43:23,0.00,0.12,0.00,23.98,26.42,29.24,13.72,40.00,1018.11,2036.98,3543.77,3060.98,3508.99,599.89,594.81,25.35,0000 0000 0000 0000 000000
2017-09-16 02:48:24,0.02,0.12,0.00,23.87,26.42,29.26,13.78,40.08,1018.13,2036.99,3543.14,3060.93,3508.82,600.10,595.34,25.40,0000 0000 0000 0000 000000
2017-09-16 02:53:25,0.01,0.12,0.00,23.95,26.42,29.28,13.75,40.10,1018.11,2036.99,3543.00,3060.65,3508.22,599.83,594.84,25.45,0000 0000 0000 0000 000000
2017-09-16 02:58:27,0.01,0.13,0.00,23.86,26.42,29.28,13.69,40.00,1018.09,2036.98,3543.00,3060.20,3508.03,600.01,595.17,25.50,0000 0000 0000 0000 000000
2017-09-16 03:03:28,0.00,0.13,0.00,23.95,26.42,29.30,13.71,39.97,1018.09,2036.96,3542.96,3060.06,3508.00,599.84,594.86,25.55,0000 0000 0000 0000 000000
2017-09-16 03:08:29,0.01,0.13,0.00,23.88,26.42,29.31,13.72,40.04,1018.09,2036.99,3542.64,3060.02,3508.00,600.23,595.37,25.60,0000 0000 0000 0000 000000
2017-09-16 03:13:31,0.01,0.13,0.00,23.95,26.42,29.30,13.73,39.88,1018.10,2036.98,3542.11,3060.00,3508.00,600.27,595.26,25.65,0000 0000 0000 0000 000000
2017-09-16 03:18:32,0.00,0.13,0.00,23.87,26.43,29.31,13.74,39.86,1018.10,2036.96,3542.01,3060.00,3507.95,600.00,595.19,25.70,0000 0000 0000 0000 000000
2017-09-16 03:23:34,0.01,0.13,0.00,23.88,26.44,29.30,13.79,39.92,1018.10,2036.96,3542.00,3059.99,3507.74,600.04,595.16,25.75,0000 0000 0000 0000 000000
2017-09-16 03:28:35,0.00,0.13,0.00,23.91,26.44,29.30,13.73,39.94,1018.10,2036.98,3541.96,3059.98,3507.30,600.06,595.23,25.80,0000 0000 0000 0000 000000
2017-09-16 03:33:36,0.01,0.13,0.00,23.87,26.45,29.28,13.80,40.01,1018.11,2036.96,3541.74,3059.95,3507.04,599.85,594.99,25.85,0000 0000 0000 0000 000000
2017-09-16 03:38:38,0.01,0.13,0.00,23.91,26.45,29.30,13.74,40.08,1018.13,2036.98,3541.21,3059.87,3507.01,599.71,594.80,25.90,0000 0000 0000 0000 000000
2017-09-16 03:43:39,0.01,0.13,0.00,23.87,26.45,29.27,13.83,40.18,1018.13,2036.97,3541.05,3059.60,3507.00,600.29,595.29,25.95,0000 0000 0000 0000 000000
2017-09-16 03:48:41,0.01,0.13,0.00,23.85,26.45,29.24,13.84,40.20,1018.17,2036.95,3541.00,3059.14,3506.98,600.19,595.32,26.00,0000 0000 0000 0000 000000
2017-09-16 03:53:42,0.01,0.13,0.00,23.90,26.45,29.24,13.82,40.19,1018.11,2036.96,3541.00,3059.04,3506.95,599.81,594.85,26.05,0000 0000 0000 0000 000000
2017-09-16 03:58:43,0.00,0.13,0.00,23.80,26.45,29.25,13.77,40.00,1018.09,2036.97,3540.97,3059.04,3506.93,599.75,595.07,26.11,0000 0000 0000 0000 000000
2017-09-16 04:03:44,0.01,0.13,0.00,23.87,26.45,29.22,13.81,40.10,1018.12,2036.97,3540.75,3059.01,3506.72,600.26,595.40,26.16,0000 0000 0000 0000 000000
2017-09-16 04:08:46,0.01,0.13,0.00,23.89,26.45,29.23,13.65,40.12,1018.25,2036.97,3540.23,3059.00,3506.13,599.97,595.04,26.21,0000 0000 0000 0000 000000
2017-09-16 04:13:47,0.00,0.13,0.00,23.88,26.46,29.19,13.73,40.11,1018.38,2036.97,3540.05,3059.00,3506.04,599.99,595.28,26.26,0000 0000 0000 0000 000000
2017-09-16 04:18:48,0.00,0.13,0.00,23.85,26.47,29.20,13.83,40.28,1018.42,2036.97,3540.01,3058.99,3506.00,600.14,595.43,26.31,0000 0000 0000 0000 000000
2017-09-16 04:23:49,-0.00,0.13,0.00,23.90,26.47,29.25,13.69,40.23,1018.49,2036.95,3539.99,3058.96,3506.00,599.88,595.40,26.36,0000 0000 0000 0000 000000
2017-09-16 04:28:50,0.00,0.13,0.00,23.87,26.47,29.27,13.70,40.14,1018.33,2036.94,3539.98,3058.94,3505.99,599.70,595.08,26.41,0000 0000 0000 0000 000000
2017-09-16 04:33:52,0.00,0.13,0.00,23.90,26.47,29.25,13.80,40.25,1018.37,2036.96,3539.96,3058.94,3505.97,600.12,595.28,26.46,0000 0000 0000 0000 000000
2017-09-16 04:38:53,0.02,0.13,0.00,23.85,26.47,29.24,13.88,40.33,1018.31,2036.96,3539.47,3058.70,3505.90,600.07,595.40,26.51,0000 0000 0000 0000 000000
2017-09-16 04:43:54,0.01,0.13,0.00,23.88,26.47,29.24,13.70,40.31,1018.21,2036.95,3539.03,3058.17,3505.50,599.73,594.91,26.56,0000 0000 0000 0000 000000
2017-09-16 04:48:55,0.00,0.13,0.00,23.89,26.47,29.23,13.83,40.29,1018.21,2036.93,3539.00,3058.03,3505.07,600.30,595.56,26.61,0000 0000 0000 0000 000000
2017-09-16 04:53:56,0.01,0.13,0.00,23.87,26.49,29.24,13.76,40.23,1018.25,2036.93,3538.67,3058.00,3504.98,599.59,594.86,26.66,0000 0000 0000 0000 000000
2017-09-16 04:58:58,0.08,0.14,0.00,23.87,26.49,29.24,13.78,40.12,1018.22,2036.84,3536.53,3057.00,3503.64,600.27,595.50,26.71,0000 0000 0000 0000 000000
2017-09-16 05:03:58,0.01,0.14,0.00,23.91,26.50,29.25,13.77,40.27,1018.19,2036.69,3535.30,3056.22,3503.01,600.12,595.25,26.76,0000 0000 0000 0000 000000
2017-09-16 05:09:00,-0.00,0.14,0.00,23.88,26.50,29.24,13.79,40.27,1018.19,2036.55,3535.06,3056.06,3503.00,600.23,595.08,26.81,0000 0000 0000 0000 000000
2017-09-16 05:14:01,-0.02,0.14,0.00,23.87,26.50,29.24,13.76,40.17,1018.10,2036.38,3535.00,3056.01,3502.99,600.01,595.27,26.86,0000 0000 0000 0000 000000
2017-09-16 05:19:03,-0.00,0.14,0.00,23.91,26.50,29.25,13.80,40.14,1018.12,2036.28,3534.98,3056.01,3502.94,599.68,594.76,26.91,0000 0000 0000 0000 000000
2017-09-16 05:24:04,0.01,0.14,0.00,23.88,26.50,29.31,13.76,40.26,1018.10,2036.15,3534.62,3056.00,3502.47,600.08,595.22,26.96,0000 0000 0000 0000 000000
2017-09-16 05:29:05,0.01,0.14,0.00,23.85,26.50,29.26,13.79,40.31,1018.11,2036.12,3534.13,3055.99,3502.06,600.21,595.35,27.01,0000 0000 0000 0000 000000
2017-09-16 05:34:06,-0.00,0.14,0.00,23.87,26.51,29.26,13.76,40.21,1018.19,2036.07,3534.02,3055.97,3502.01,600.01,595.18,27.06,0000 0000 0000 0000 000000
2017-09-16 05:39:08,-0.00,0.14,0.00,23.82,26.52,29.27,13.84,40.25,1018.15,2036.09,3534.00,3055.94,3502.00,600.21,595.53,27.11,0000 0000 0000 0000 000000
2017-09-16 05:44:09,0.00,0.14,0.00,23.83,26.52,29.27,13.81,40.42,1018.11,2036.10,3533.99,3055.92,3502.00,600.02,595.30,27.16,0000 0000 0000 0000 000000
2017-09-16 05:49:10,0.00,0.14,0.00,23.90,26.52,29.28,13.71,40.17,1018.13,2036.04,3533.98,3055.74,3501.99,600.04,595.02,27.21,0000 0000 0000 0000 000000
2017-09-16 05:54:12,0.01,0.14,0.00,23.83,26.52,29.28,13.71,40.21,1018.12,2036.05,3533.87,3055.27,3501.96,600.19,595.41,27.26,0000 0000 0000 0000 000000
2017-09-16 05:59:13,0.01,0.14,0.00,23.85,26.52,29.28,13.75,40.23,1018.10,2036.09,3533.49,3055.17,3501.86,599.95,595.16,27.31,0000 0000 0000 0000 000000
2017-09-16 06:04:14,0.00,0.14,0.00,23.89,26.52,29.30,13.75,40.33,1018.15,2036.05,3533.09,3055.03,3501.45,600.07,595.24,27.36,0000 0000 0000 0000 000000
2017-09-16 06:09:15,0.00,0.14,0.00,23.84,26.52,29.32,13.81,40.30,1018.19,2036.01,3533.01,3055.01,3501.08,599.98,595.17,27.41,0000 0000 0000 0000 000000
2017-09-16 06:14:17,0.00,0.14,0.00,23.90,26.53,29.29,13.76,40.17,1018.11,2036.02,3533.00,3055.00,3501.01,599.90,595.02,27.46,0000 0000 0000 0000 000000
2017-09-16 06:19:18,0.00,0.14,0.00,23.83,26.53,29.31,13.80,40.49,1018.13,2036.02,3532.95,3054.99,3501.00,600.06,595.25,27.51,0000 0000 0000 0000 000000
2017-09-16 06:24:19,0.00,0.14,0.00,23.81,26.54,29.30,13.81,40.37,1018.12,2036.02,3532.70,3054.98,3501.00,600.14,595.53,27.56,0000 0000 0000 0000 000000
2017-09-16 06:29:21,0.01,0.14,0.00,23.88,26.54,29.29,13.67,40.19,1018.11,2036.03,3532.28,3054.95,3500.99,599.42,594.66,27.61,0000 0000 0000 0000 000000
2017-09-16 06:34:22,0.01,0.14,0.00,23.88,26.55,29.35,13.82,40.52,1018.14,2036.03,3532.06,3054.88,3500.96,600.08,595.18,27.66,0000 0000 0000 0000 000000
2017-09-16 06:39:23,-0.00,0.14,0.00,23.83,26.55,29.32,13.71,40.17,1018.10,2036.02,3532.04,3054.82,3500.89,599.88,595.00,27.71,0000 0000 0000 0000 000000
2017-09-16 06:44:24,0.01,0.14,0.00,23.89,26.55,29.35,13.63,40.24,1018.11,2036.01,3532.00,3054.68,3500.54,599.63,594.83,27.76,0000 0000 0000 0000 000000
2017-09-16 06:49:26,0.01,0.14,0.00,23.83,26.55,29.33,13.82,40.42,1018.11,2036.01,3532.00,3054.28,3500.13,600.30,595.43,27.81,0000 0000 0000 0000 000000
2017-09-16 06:54:27,-0.00,0.14,0.00,23.83,26.55,29.31,13.75,40.38,1018.12,2036.00,3532.00,3054.11,3500.02,599.78,595.01,27.86,0000 0000 0000 0000 000000
2017-09-16 06:59:28,0.00,0.14,0.00,23.79,26.55,29.30,13.79,40.31,1018.12,2036.00,3531.98,3054.07,3500.01,599.96,595.35,27.91,0000 0000 0000 0000 000000
2017-09-16 07:04:30,0.00,0.14,0.00,23.83,26.55,29.33,13.81,40.30,1018.11,2036.00,3531.90,3054.01,3500.00,599.97,595.27,27.96,0000 0000 0000 0000 000000
2017-09-16 07:09:31,0.00,0.14,0.00,23.80,26.55,29.32,13.77,40.09,1018.11,2036.00,3531.45,3054.01,3499.99,599.65,595.19,28.01,0000 0000 0000 0000 000000
2017-09-16 07:14:32,0.00,0.14,0.00,23.82,26.55,29.29,13.78,40.14,1018.12,2036.00,3531.07,3054.00,3499.98,600.06,595.32,28.06,0000 0000 0000 0000 000000
2017-09-16 07:19:33,0.00,0.14,0.00,23.78,26.55,29.29,13.78,40.20,1018.14,2036.00,3531.02,3054.00,3499.96,599.96,595.47,28.11,0000 0000 0000 0000 000000
2017-09-16 07:24:35,0.00,0.14,0.00,23.79,26.56,29.30,13.82,40.27,1018.11,2036.00,3531.00,3054.00,3499.89,600.05,595.30,28.16,0000 0000 0000 0000 000000
2017-09-16 07:29:36,0.00,0.14,0.00,23.80,26.56,29.31,13.66,40.12,1018.15,2036.00,3531.00,3053.99,3499.65,599.70,595.08,28.21,0000 0000 0000 0000 000000
2017-09-16 07:34:37,0.00,0.14,0.00,23.82,26.57,29.32,13.79,40.22,1018.16,2036.00,3530.98,3053.98,3499.12,600.07,595.30,28.26,0000 0000 0000 0000 000000
2017-09-16 07:39:38,0.00,0.15,0.00,23.79,26.57,29.31,13.78,40.27,1018.26,2035.99,3530.85,3053.94,3499.02,600.12,595.53,28.31,0000 0000 0000 0000 000000
2017-09-16 07:44:40,0.00,0.15,0.00,23.82,26.57,29.32,13.73,40.23,1018.49,2035.99,3530.64,3053.91,3499.01,599.55,595.03,28.36,0000 0000 0000 0000 000000
2017-09-16 07:49:41,0.01,0.15,0.00,23.83,26.57,29.33,13.69,40.13,1018.52,2035.99,3530.25,3053.89,3499.00,600.17,595.67,28.41,0000 0000 0000 0000 000000
2017-09-16 07:54:43,0.01,0.15,0.00,23.77,26.57,29.34,13.79,40.27,1018.51,2036.00,3530.02,3053.55,3498.99,600.04,595.72,28.46,0000 0000 0000 0000 000000
2017-09-16 07:59:44,0.15,0.15,0.00,23.83,26.57,29.31,13.84,40.40,1018.51,2036.00,3527.43,3051.53,3496.75,600.15,595.63,28.51,0000 0000 0000 0000 000000
2017-09-16 08:04:45,0.01,0.16,0.00,23.80,26.57,29.32,13.77,40.25,1018.53,2036.00,3526.09,3050.99,3496.00,600.37,595.92,28.56,0000 0000 0000 0000 000000
2017-09-16 08:09:47,0.00,0.16,0.00,23.83,26.57,29.34,13.79,40.23,1018.53,2036.01,3526.02,3050.83,3495.98,599.83,595.37,28.61,0000 0000 0000 0000 000000
2017-09-16 08:14:48,0.05,0.16,0.00,23.74,26.57,29.33,13.81,40.41,1018.55,2036.00,3525.25,3050.08,3495.20,600.17,595.85,28.66,0000 0000 0000 0000 000000
2017-09-16 08:19:49,0.00,0.16,0.00,23.78,26.57,29.39,13.80,40.35,1018.57,2036.00,3524.72,3049.94,3494.95,600.00,595.58,28.71,0000 0000 0000 0000 000000
2017-09-16 08:24:50,0.17,0.16,0.00,23.87,26.57,29.41,13.80,40.31,1018.57,2036.00,3521.44,3048.19,3492.99,600.02,595.55,28.76,0000 0000 0000 0000 000000
2017-09-16 08:29:51,0.05,0.17,0.00,23.86,26.57,29.37,13.86,40.43,1018.57,2036.00,3519.07,3047.01,3491.41,600.07,595.57,28.81,0000 0000 0000 0000 000000
2017-09-16 08:34:52,0.00,0.17,0.00,23.84,26.57,29.35,13.62,40.23,1018.57,2036.00,3519.00,3046.98,3491.07,599.37,594.87,28.86,0000 0000 0000 0000 000000
2017-09-16 08:39:54,0.00,0.17,0.00,23.82,26.57,29.36,13.73,40.25,1018.57,2036.00,3519.00,3046.96,3491.04,599.84,595.26,28.91,0000 0000 0000 0000 000000
2017-09-16 08:44:55,0.00,0.17,0.00,23.87,26.57,29.36,13.70,40.12,1018.58,2036.00,3518.99,3046.91,3491.03,599.92,595.26,28.96,0000 0000 0000 0000 000000
2017-09-16 08:49:56,0.01,0.17,0.00,23.88,26.57,29.38,13.79,40.33,1018.57,2036.00,3518.76,3046.57,3491.00,600.13,595.61,29.01,0000 0000 0000 0000 000000
2017-09-16 08:54:58,0.07,0.17,0.00,23.83,26.57,29.36,13.82,40.30,1018.58,2036.00,3517.03,3045.61,3490.40,599.91,595.41,29.06,0000 0000 0000 0000 000000
2017-09-16 08:59:59,0.01,0.18,0.00,23.82,26.57,29.39,13.75,40.33,1018.58,2036.00,3516.02,3045.04,3489.81,599.90,595.43,29.11,0000 0000 0000 0000 000000
2017-09-16 09:05:00,-0.00,0.18,0.00,23.79,26.57,29.36,13.79,40.30,1018.58,2036.00,3516.00,3045.02,3489.67,599.99,595.66,29.16,0000 0000 0000 0000 000000
2017-09-16 09:10:01,0.00,0.18,0.00,23.81,26.57,29.35,13.80,40.23,1018.60,2036.00,3516.00,3045.02,3489.53,600.04,595.72,29.21,0000 0000 0000 0000 000000
2017-09-16 09:15:03,0.00,0.18,0.00,23.78,26.57,29.34,13.81,40.23,1018.65,2036.00,3515.99,3045.00,3489.14,600.21,595.87,29.26,0000 0000 0000 0000 000000
2017-09-16 09:20:04,0.00,0.18,0.00,23.84,26.57,29.38,13.76,40.23,1018.68,2036.00,3515.97,3045.00,3489.04,599.85,595.27,29.31,0000 0000 0000 0000 000000
2017-09-16 09:25:05,0.00,0.18,0.00,23.75,26.57,29.36,13.84,40.47,1018.77,2036.00,3515.69,3044.97,3489.00,600.22,596.01,29.36,0000 0000 0000 0000 000000
2017-09-16 09:30:06,0.15,0.18,0.00,23.78,26.57,29.36,13.76,40.50,1018.78,2035.99,3512.35,3043.26,3487.06,600.14,595.98,29.42,0000 0000 0000 0000 000000
2017-09-16 09:35:08,0.00,0.18,0.00,23.79,26.57,29.35,13.83,40.30,1018.78,2035.99,3511.26,3042.80,3486.33,600.01,595.72,29.47,0000 0000 0000 0000 000000
2017-09-16 09:40:09,0.01,0.18,0.00,23.80,26.57,29.38,13.70,40.45,1018.96,2035.99,3511.17,3042.84,3486.24,599.81,595.73,29.52,0000 0000 0000 0000 000000
2017-09-16 09:45:10,0.00,0.18,0.00,23.80,26.57,29.38,13.79,40.27,1019.04,2035.99,3511.06,3042.71,3486.06,600.11,595.99,29.57,0000 0000 0000 0000 000000
2017-09-16 09:50:12,0.00,0.19,0.00,23.84,26.57,29.36,13.74,40.23,1019.06,2035.99,3511.00,3042.53,3486.04,599.72,595.50,29.62,0000 0000 0000 0000 000000
2017-09-16 09:55:13,0.01,0.19,0.00,23.78,26.57,29.37,13.77,40.06,1019.06,2035.99,3511.00,3042.25,3486.01,599.71,595.64,29.67,0000 0000 0000 0000 000000
2017-09-16 10:00:14,0.02,0.19,0.00,23.79,26.57,29.39,13.82,40.31,1019.06,2035.99,3510.49,3041.89,3485.74,600.05,596.05,29.72,0000 0000 0000 0000 000000
2017-09-16 10:05:15,0.27,0.20,0.00,23.78,26.57,29.36,13.79,40.33,1019.06,2035.99,3505.07,3039.02,3482.40,599.93,595.79,29.77,0000 0000 0000 0000 000000
2017-09-16 10:10:17,0.26,0.21,0.00,23.81,26.57,29.42,13.77,40.23,1019.06,2035.99,3498.21,3035.31,3478.30,600.36,596.28,29.82,0000 0000 0000 0000 000000
2017-09-16 10:15:18,0.09,0.22,0.00,23.78,26.57,29.36,13.79,40.38,1019.06,2035.99,3494.53,3033.43,3476.12,600.20,596.01,29.87,0000 0000 0000 0000 000000
2017-09-16 10:20:19,0.06,0.22,0.00,23.77,26.57,29.39,13.77,40.46,1019.07,2035.99,3492.79,3032.44,3475.07,599.98,595.94,29.92,0000 0000 0000 0000 000000
2017-09-16 10:25:21,0.01,0.22,0.00,23.77,26.57,29.38,13.81,40.32,1019.06,2035.99,3492.02,3032.00,3474.83,599.83,595.75,29.97,0000 0000 0000 0000 000000
2017-09-16 10:30:22,0.09,0.22,0.00,23.77,26.57,29.34,13.73,40.30,1019.07,2035.99,3490.67,3031.03,3473.52,599.72,595.66,30.02,0000 0000 0000 0000 000000
2017-09-16 10:35:23,0.09,0.23,0.00,23.77,26.57,29.38,13.81,40.37,1019.08,2035.98,3488.33,3029.32,3471.51,600.11,596.09,30.07,0000 0000 0000 0000 000000
2017-09-16 10:40:25,0.01,0.23,0.00,23.78,26.57,29.37,13.79,40.18,1019.12,2035.99,3487.49,3028.98,3471.01,599.90,595.84,30.12,0000 0000 0000 0000 000000
2017-09-16 10:45:26,0.05,0.23,0.00,23.81,26.57,29.37,13.81,40.22,1019.13,2035.99,3486.58,3028.23,3470.37,600.11,596.05,30.17,0000 0000 0000 0000 000000
2017-09-16 10:50:27,0.12,0.24,0.00,23.71,26.57,29.33,13.82,40.20,1019.19,2035.99,3484.39,3026.82,3468.67,600.21,596.32,30.22,0000 0000 0000 0000 000000
2017-09-16 10:55:29,0.07,0.24,0.00,23.73,26.57,29.33,13.78,40.42,1019.34,2035.99,3482.25,3025.28,3466.94,600.02,596.09,30.27,0000 0000 0000 0000 000000
2017-09-16 11:00:30,0.03,0.25,0.00,23.76,26.57,29.34,13.78,40.23,1019.47,2035.99,3481.07,3024.61,3466.07,600.01,596.02,30.32,0000 0000 0000 0000 000000
2017-09-16 11:05:31,-0.00,0.25,0.00,23.78,26.57,29.35,13.78,40.22,1019.48,2035.99,3481.01,3024.53,3466.01,599.76,595.97,30.37,0000 0000 0000 0000 000000
2017-09-16 11:10:33,0.00,0.25,0.00,23.83,26.57,29.36,13.77,40.13,1019.46,2035.99,3481.01,3024.46,3466.00,599.56,595.63,30.42,0000 0000 0000 0000 000000
2017-09-16 11:15:34,0.01,0.25,0.00,23.81,26.57,29.39,13.82,40.27,1019.50,2035.99,3481.00,3024.13,3466.00,599.93,596.07,30.47,0000 0000 0000 0000 000000
2017-09-16 11:20:35,0.00,0.25,0.00,23.80,26.57,29.37,13.76,40.22,1019.52,2035.99,3480.96,3024.03,3465.99,600.04,596.21,30.52,0000 0000 0000 0000 000000
2017-09-16 11:25:36,0.00,0.25,0.00,23.73,26.57,29.33,13.80,40.23,1019.51,2035.99,3480.91,3024.01,3465.99,600.05,596.37,30.57,0000 0000 0000 0000 000000
2017-09-16 11:30:38,0.00,0.25,0.00,23.75,26.55,29.35,13.74,40.06,1019.52,2036.00,3480.88,3024.02,3465.98,600.01,596.21,30.62,0000 0000 0000 0000 000000
2017-09-16 11:35:39,0.00,0.25,0.00,23.76,26.55,29.34,13.74,39.91,1019.50,2036.00,3480.81,3024.02,3465.98,599.73,595.82,30.67,0000 0000 0000 0000 000000
2017-09-16 11:40:40,0.00,0.25,0.00,23.76,26.55,29.35,13.82,40.07,1019.42,2036.00,3480.50,3024.00,3465.91,600.17,596.22,30.72,0000 0000 0000 0000 000000
2017-09-16 11:45:41,0.01,0.25,0.00,23.77,26.55,29.41,13.81,40.16,1019.33,2036.00,3480.32,3024.00,3465.66,599.59,595.64,30.77,0000 0000 0000 0000 000000
2017-09-16 11:50:42,0.00,0.25,0.00,23.70,26.55,29.39,13.80,40.14,1019.30,2036.00,3480.05,3024.00,3465.20,600.10,596.33,30.82,0000 0000 0000 0000 000000
2017-09-16 11:55:44,0.00,0.25,0.00,23.75,26.55,29.39,13.81,40.07,1019.15,2036.00,3480.02,3024.00,3465.04,599.99,596.05,30.87,0000 0000 0000 0000 000000
2017-09-16 12:00:45,0.00,0.25,0.00,23.81,26.55,29.38,13.85,40.02,1019.11,2036.00,3480.00,3024.00,3465.04,600.07,595.98,30.92,0000 0000 0000 0000 000000
2017-09-16 12:05:46,0.00,0.25,0.00,23.80,26.55,29.40,13.83,40.25,1019.07,2036.00,3479.99,3023.98,3465.01,599.86,595.74,30.97,0000 0000 0000 0000 000000
2017-09-16 12:10:48,0.00,0.25,0.00,23.80,26.55,29.38,13.82,40.33,1019.09,2036.00,3479.95,3023.97,3465.00,600.19,596.04,31.02,0000 0000 0000 0000 000000
2017-09-16 12:15:49,0.00,0.25,0.00,23.80,26.54,29.40,13.83,40.28,1019.08,2036.00,3479.79,3023.96,3464.99,600.04,596.04,31.07,0000 0000 0000 0000 000000
2017-09-16 12:20:51,0.00,0.25,0.00,23.77,26.53,29.39,13.85,40.32,1019.10,2036.00,3479.50,3023.97,3464.98,600.08,596.02,31.12,0000 0000 0000 0000 000000
2017-09-16 12:25:52,0.00,0.25,0.00,23.79,26.53,29.38,13.76,40.14,1019.10,2036.00,3479.08,3023.91,3464.97,600.25,596.15,31.17,0000 0000 0000 0000 000000
2017-09-16 12:30:53,0.00,0.25,0.00,23.80,26.52,29.37,13.81,40.37,1019.08,2036.00,3479.02,3023.75,3464.85,600.21,596.09,31.22,0000 0000 0000 0000 000000
2017-09-16 12:35:55,0.02,0.25,0.00,23.81,26.52,29.42,13.82,40.37,1019.07,2036.00,3478.99,3023.28,3464.32,600.16,595.97,31.27,0000 0000 0000 0000 000000
2017-09-16 12:40:56,0.01,0.25,0.00,23.66,26.52,29.40,13.85,40.34,1019.06,2036.00,3478.95,3023.04,3464.05,600.28,596.46,31.32,0000 0000 0000 0000 000000
2017-09-16 12:45:57,0.00,0.25,0.00,23.75,26.52,29.38,13.82,40.38,1019.06,2036.00,3478.73,3023.01,3464.01,599.93,595.87,31.37,0000 0000 0000 0000 000000
2017-09-16 12:50:59,0.01,0.25,0.00,23.77,26.52,29.37,13.78,40.23,1019.06,2036.00,3478.16,3023.00,3464.00,599.82,595.82,31.42,0000 0000 0000 0000 000000
2017-09-16 12:56:00,0.00,0.25,0.00,23.79,26.52,29.35,13.77,40.25,1019.06,2036.00,3478.06,3023.00,3464.00,599.73,595.53,31.47,0000 0000 0000 0000 000000